DW6378 Weather Reports


time (UTC)temp
C
wind
direction
speed
KPH
gust
KPH
rain 1hr
cm
rain 24hr
cm
rain mn
cm
humidity
%
barometer
mb
20260504204458 20 293 8.0 17.7 0.00 0.00 0.00 38 1008.2
20260504202959 20 200 9.7 20.9 0.00 0.00 0.00 38 1008.5
20260504195959 19 267 8.0 12.9 0.00 0.00 0.00 39 1008.8
20260504193000 18 232 8.0 17.7 0.00 0.00 0.00 39 1009.2
20260504191459 18 281 8.0 20.9 0.00 0.00 0.00 39 1009.2
20260504190002 19 128 11.3 25.7 0.00 0.00 0.00 38 1009.3
20260504184459 18 222 9.7 17.7 0.00 0.00 0.00 40 1009.5
20260504182959 18 276 9.7 24.1 0.00 0.00 0.00 39 1009.6
20260504181459 18 305 8.0 22.5 0.00 0.00 0.00 39 1009.7
20260504180001 18 255 8.0 19.3 0.00 0.00 0.00 41 1009.8
20260504174500 17 208 6.4 19.3 0.00 0.00 0.00 41 1009.9
20260504172959 17 222 9.7 20.9 0.00 0.00 0.00 41 1010.0
20260504171459 17 262 8.0 19.3 0.00 0.00 0.00 41 1010.1
20260504081459 3 143 1.6 1.6 0.00 0.00 0.00 65 1012.5
20260504045958 5 162 0.0 3.2 0.00 0.00 0.00 60 1012.4
20260504044459 6 273 1.6 6.4 0.00 0.00 0.00 58 1012.3
20260504042959 6 284 3.2 4.8 0.00 0.00 0.00 56 1012.1
20260504041459 7 249 3.2 9.7 0.00 0.00 0.00 55 1012.1
20260504034458 6 291 1.6 6.4 0.00 0.00 0.00 56 1011.9
20260504032959 6 215 3.2 8.0 0.00 0.00 0.00 56 1011.8
20260504031459 6 252 1.6 8.0 0.00 0.00 0.00 56 1011.9
20260504025959 6 249 1.6 4.8 0.00 0.00 0.00 56 1011.9
20260504024458 6 212 1.6 8.0 0.00 0.00 0.00 57 1011.9
20260504022958 6 267 1.6 8.0 0.00 0.00 0.00 57 1012.0
20260504021458 6 252 1.6 3.2 0.00 0.00 0.00 56 1011.8
20260504015958 6 222 1.6 4.8 0.00 0.00 0.00 55 1011.9
20260504014457 6 238 1.6 3.2 0.00 0.00 0.00 54 1011.9
20260504012958 7 243 1.6 1.6 0.00 0.00 0.00 52 1011.7
20260504011459 7 249 1.6 3.2 0.00 0.00 0.00 50 1011.5
20260504010000 7 246 1.6 4.8 0.00 0.00 0.00 48 1011.4
20260504004500 8 262 1.6 4.8 0.00 0.00 0.00 46 1011.4
20260504002958 8 255 3.2 8.0 0.00 0.00 0.00 45 1011.3
20260504001500 8 264 3.2 6.4 0.00 0.00 0.00 44 1011.1
20260503235959 9 283 3.2 6.4 0.00 0.00 0.00 44 1010.9
20260503232958 10 266 4.8 9.7 0.00 0.00 0.00 43 1010.6
20260503224458 10 257 6.4 12.9 0.00 0.00 0.00 40 1010.5
20260503222958 11 232 8.0 16.1 0.00 0.00 0.00 39 1010.5
20260503215959 11 303 6.4 17.7 0.00 0.00 0.00 40 1010.4
20260503214458 11 300 8.0 20.9 0.00 0.00 0.00 38 1010.3
20260503212959 11 270 4.8 14.5 0.00 0.00 0.00 39 1010.2
20260503211458 11 264 6.4 22.5 0.00 0.00 0.00 38 1010.1